DW9177 Weather Reports


time (UTC)temp
C
wind
direction
speed
KPH
gust
KPH
rain 1hr
cm
rain 24hr
cm
rain mn
cm
humidity
%
barometer
mb
20260506103033 12 187 1.6 3.2 0.00 0.15 0.00 67 1012.0
20260506101529 12 157 0.0 1.6 0.00 0.15 0.00 66 1011.8
20260506100033 12 215 0.0 0.0 0.00 0.15 0.00 66 1011.8
20260506094527 12 168 1.6 4.8 0.00 0.25 0.00 66 1011.6
20260506093027 13 160 0.0 4.8 0.00 0.25 0.00 67 1011.6
20260506091524 13 182 1.6 4.8 0.00 0.25 0.00 68 1011.4
20260506090021 13 158 1.6 6.4 0.00 0.25 0.00 68 1011.4
20260506084519 13 134 0.0 6.4 0.00 0.38 0.00 67 1011.6
20260506083017 13 163 3.2 8.0 0.00 0.38 0.00 66 1011.5
20260506081519 14 160 0.0 0.0 0.00 0.38 0.00 65 1011.7
20260506073005 15 228 0.0 0.0 0.00 0.56 0.00 61 1011.8
20260506071502 15 239 0.0 0.0 0.00 0.56 0.00 60 1011.8
20260506070126 16 233 0.0 6.4 0.00 0.56 0.00 59 1011.6
20260506061558 16 276 0.0 4.8 0.00 0.66 0.56 56 1011.3
20260506050105 17 273 0.0 4.8 0.00 0.71 0.56 52 1011.0
20260506044553 17 295 1.6 6.4 0.00 0.71 0.56 51 1010.8
20260506043051 17 272 3.2 12.9 0.00 0.71 0.56 50 1010.6
20260506041549 18 242 4.8 12.9 0.00 0.71 0.56 48 1010.3
20260506040049 18 263 4.8 12.9 0.00 0.71 0.56 44 1010.1
20260506034551 18 255 1.6 8.0 0.00 0.76 0.56 40 1009.9
20260506033048 18 266 1.6 9.7 0.00 0.76 0.56 38 1009.8
20260506031547 19 240 3.2 9.7 0.00 0.76 0.56 37 1009.6
20260506030047 19 268 1.6 16.1 0.00 0.76 0.56 36 1009.4
20260506024554 20 201 4.8 19.3 0.00 0.91 0.56 36 1009.2
20260506023045 20 259 4.8 16.1 0.00 0.91 0.56 37 1008.9
20260506021545 20 262 4.8 19.3 0.00 0.91 0.56 37 1008.6
20260506020055 21 278 6.4 17.7 0.00 0.91 0.56 35 1008.3
20260506014548 21 271 8.0 24.1 0.00 1.09 0.56 35 1008.2
20260506013143 22 274 9.7 29.0 0.00 1.09 0.56 33 1008.0
20260506011606 23 213 6.4 19.3 0.00 1.09 0.56 29 1007.8
20260506010043 23 330 12.9 22.5 0.00 1.09 0.56 29 1007.7
20260506004557 23 293 8.0 24.1 0.00 1.17 0.56 30 1007.5
20260506003040 23 264 11.3 22.5 0.00 1.17 0.56 29 1007.4
20260506001544 23 264 8.0 14.5 0.00 1.17 0.56 31 1007.3
20260506000108 23 259 8.0 25.7 0.00 1.17 0.56 30 1007.2
20260505234545 24 226 8.0 25.7 0.00 1.17 0.56 29 1007.0
20260505233036 24 248 9.7 22.5 0.00 1.17 0.56 28 1007.0
20260505231537 24 259 6.4 22.5 0.00 1.17 0.56 28 1007.0
20260505230051 25 237 12.9 25.7 0.00 1.17 0.56 28 1007.0
20260505224539 24 257 8.0 27.4 0.00 1.17 0.56 29 1007.0
20260505223032 24 270 12.9 25.7 0.00 1.17 0.56 28 1007.3
20260505221529 24 226 11.3 27.4 0.00 1.17 0.56 29 1007.2
20260505220026 24 225 11.3 29.0 0.00 1.17 0.56 31 1007.3
20260505214528 24 285 9.7 30.6 0.00 1.17 0.56 34 1007.5
20260505213025 24 231 16.1 37.0 0.00 1.17 0.56 33 1007.6
20260505211526 23 238 12.9 37.0 0.00 1.17 0.56 38 1007.7
20260505210018 23 290 14.5 27.4 0.00 1.17 0.56 37 1007.8
20260505204515 23 243 9.7 24.1 0.00 1.17 0.56 40 1007.9
20260505203014 23 338 9.7 27.4 0.00 1.17 0.56 40 1008.0
20260505201512 23 224 3.2 16.1 0.00 1.17 0.56 41 1008.1
20260505200011 23 281 3.2 12.9 0.00 1.17 0.56 49 1008.2
20260505194508 23 271 6.4 11.3 0.00 1.17 0.56 49 1008.4
20260505193009 22 11 6.4 12.9 0.00 1.17 0.56 50 1008.3
20260505191504 22 268 1.6 11.3 0.00 1.17 0.56 53 1008.6
20260505190005 21 288 4.8 12.9 0.00 1.17 0.56 54 1008.9
20260505184505 21 233 3.2 11.3 0.00 1.17 0.56 54 1009.2
20260505183100 21 314 1.6 9.7 0.00 1.17 0.56 58 1009.3
20260505181559 20 341 3.2 9.7 0.00 1.17 0.56 60 1009.4
20260505174556 20 226 0.0 9.7 0.00 1.17 0.56 60 1009.7
20260505173111 20 145 0.0 4.8 0.00 1.17 0.56 62 1009.7
20260505171603 18 319 0.0 4.8 0.00 1.17 0.56 68 1009.8
20260505170047 18 37 0.0 0.0 0.00 1.17 0.56 69 1009.6
20260505164545 17 333 0.0 1.6 0.00 1.17 0.56 71 1009.6
20260505163041 17 231 0.0 3.2 0.00 1.17 0.56 76 1009.7
20260505161539 17 231 0.0 4.8 0.00 1.17 0.56 76 1009.7
20260505153032 15 210 0.0 0.0 0.00 1.17 0.56 86 1009.4
20260505151527 15 148 0.0 3.2 0.00 1.17 0.56 89 1009.5
20260505124525 13 222 0.0 0.0 0.03 1.17 0.56 94 1008.4
20260505123017 13 222 0.0 0.0 0.03 1.17 0.56 94 1008.2
20260505121528 13 75 0.0 0.0 0.00 1.14 0.53 94 1008.1
20260505120015 13 75 0.0 0.0 0.05 1.14 0.53 93 1007.9
20260505114515 13 1 0.0 3.2 0.08 1.14 0.53 93 1007.8
20260505113013 13 336 0.0 0.0 0.08 1.14 0.53 93 1008.0
20260505111512 13 261 0.0 0.0 0.13 1.14 0.53 93 1008.1